Regional Weather Roundup
Issued by NWS New Orleans/Baton Rouge, LA

Home | Current Version | Previous Version | Text Only | Print | Product List | Glossary On
Versions: 1 2 3 4 5 6 7 8 9 10 11 12 13 14 15 16 17 18 19 20 21 22 23 24 25 26 27 28
000
ASUS44 KLIX 300511
RWRLIX
NEW ORLEANS REGIONAL WEATHER ROUNDUP
NATIONAL WEATHER SERVICE NEW ORLEANS LA
1200 AM CDT SAT APR 30 2016

NOTE: "FAIR" INDICATES FEW OR NO CLOUDS BELOW 12,000 FEET WITH NO
      SIGNIFICANT WEATHER AND/OR OBSTRUCTIONS TO VISIBILITY.
      SKY/WX - SKY CONDITION AND SIGNIFICANT WEATHER.
      TMP - AIR TEMPERATURE.     DP    - DEWPOINT TEMPERATURE.
      RH  - RELATIVE HUMIDITY.   PRES  - PRESSURE.
      HI  - HEAT INDEX.          WCI   - WIND CHILL INDEX.

*  THESE STATIONS ARE NOT NWS OR FAA STATIONS AND ARE NOT UNDER
   NWS QUALITY CONTROL.

LAZ038-040-048-061>063-065>067-069-300600-
SOUTHEAST LOUISIANA

CITY           SKY/WX    TMP DP  RH WIND       PRES   REMARKS
N.O. AUDUBON   NOT AVBL
N.O. INTL ARPT CLOUDY    77  72  84 SE9       29.84F
N.O. LAKEFRONT CLOUDY    72  72 100 SE12      29.85F
N.O. DOWNTOWN* CLOUDY    77  73  87 VRB6      29.85F
RESERVE*         N/A     76  72  87 SE8       29.84F
SLIDELL        CLOUDY    75  74  96 SE8       29.85F
BATON ROUGE    CLOUDY    76  70  82 SE13G21   29.82F
BOOTHVILLE     CLOUDY    73  72  96 SE6       29.88S FOG
BELLE CHASSE   MOCLDY    76  73  91 SE13      29.84F
BOGALUSA*      CLOUDY    75  71  86 SE6       29.87F
GALLIANO*      CLOUDY    76  73  88 SE9       29.85S
NEW ROADS*       N/A     75  71  87 SE14      29.80F
GONZALES*      CLOUDY    76  73  93 SE8       29.82F
HAMMOND*       CLOUDY    75  70  83 SE14G20   29.84F
HOUMA*         CLOUDY    75  73  94 SE8       29.84F
PORT FOURCHON* MOCLDY    77  73  88 SE14      29.85F

$$

MSZ070-080>082-300600-
SOUTHERN MISSISSIPPI

CITY           SKY/WX    TMP DP  RH WIND       PRES   REMARKS
MCCOMB         CLOUDY    73  72  96 SE10      29.85F
GULFPORT       CLOUDY    75  72  90 SE14      29.89S
BILOXI         CLOUDY    77  75  94 SE9       29.89F
PASCAGOULA     MOCLDY    75  73  93 SE7       29.91F

$$

COASTAL OBSERVATIONS
LAKE AND NEARSHORE STATIONS

STATION/POSITION TIME  TEMP    WIND        PRES    WAVE
                       AIR SEA DIR/SP/G            HT/PER
                 (UTC) (F)     (DEG/KT/KT) (MB)    (FT/S)
PASCAGOULA       0400   76     120/  8/ 13 1012.4
WAVELAND YACHT   0400   76 76  140/ 12/ 14 1011.7
GRAND ISLE       0400   76 78  140/  8/ 13 1011.1
SOUTHWEST PASS   0400          120/ 10/ 13   N/A
NEW CANAL        0400   76 76  150/  4/ 10 1010.7
SHELL BEACH      0400   76 78  130/ 12/ 15 1011.7

OFFSHORE STATIONS

STATION/POSITION TIME  TEMP    WIND        PRES    WAVE
                       AIR SEA DIR/SP/G            HT/PER
                 (UTC) (F)     (DEG/KT/KT) (MB)    (FT/S)
64 S DAUPHIN ISL 0400   75 74  120/ 10/ 12 1012.6

$$





USA.gov is the U.S. government's official web portal to all federal, state and local government web resources and services.